PHOENIX (45258 NORAD) Tracking and Keplerian Element Data

This shows tracking and keplerian element data for the satellite.

Feedback or suggestion? Click here.




ElementValue
Catalog45258
NamePHOENIX
Epoch Orbit2126
Epoch Day187.42326713
Epoch Year2020
RAAN256.9621
Inclination51.6413
Eccentricity0.0006545
Argument of Perigee51.0276
Mean Anonmoly309.1296
Mean Motion15.50979129
Decay Rate2.618E-05
L11 45258U 98067RB 20187.42326713 .00002618 00000-0 52118-4 0 9998
L22 45258 51.6413 256.9621 0006545 51.0276 309.1296 15.50979129 21267

Live tracking and technical data element details for PHOENIX (NORAD 45258). PHOENIX can be tracked NOW for your location showing map with azimuth and elevation plus other details from your city location.

Track the satellite on the map from your city or location and see movement details for azimuth, elevation, latitude, longitude, range, height, and movement on the map or in text.







IsCatalogInMostPopularTable: catalog: 45258, numindb: 35
Update: records affected: 1



GetName: 45258 PHOENIX

Hit Count: updated at: Mon, 06 Jul 2020 05:05:51 GMT